Terug naar catalogus

STARLINK-35113

ActiefCommunicatieVLEO
NORAD 65697·PAYLOAD·🇺🇸 United States

Gelanceerd Sep 21, 2025 vanaf Cape Canaveral Space Force Station

Loading…

Volgende Passages (komende 24 uur)

TLE

VersSource: CelesTrak SupGP

Epoch: Sep 14, 2026, 22:56 UTC

1 65697C 25212X   26257.95604167 -.00041862  00000+0 -12365-2 0  2573
2 65697  53.1581 181.9159 0001234  81.0248  17.6880 15.34419166    16

Volg STARLINK-35113 in realtime met AllMySat

Download on the App Store